30.06.2024;16:00;83
30.06.2024;15:00;78
30.06.2024;14:00;70
30.06.2024;13:00;73
30.06.2024;12:00;78
30.06.2024;11:00;79
30.06.2024;10:00;73
30.06.2024;09:00;72
30.06.2024;08:00;67
30.06.2024;07:00;67
30.06.2024;06:00;76
30.06.2024;05:00;79
30.06.2024;04:00;84
30.06.2024;03:00;76
30.06.2024;02:00;35
30.06.2024;01:00;33
30.06.2024;00:00;42
29.06.2024;23:00;56
29.06.2024;22:00;62
29.06.2024;21:00;69
29.06.2024;20:00;82
29.06.2024;19:00;99
29.06.2024;18:00;108
29.06.2024;17:00;105
29.06.2024;16:00;105
29.06.2024;15:00;106
29.06.2024;14:00;105
29.06.2024;13:00;95
29.06.2024;12:00;84
29.06.2024;11:00;73
29.06.2024;10:00;60
29.06.2024;09:00;46
29.06.2024;08:00;41
29.06.2024;07:00;35
29.06.2024;06:00;27
29.06.2024;05:00;45
29.06.2024;04:00;55
29.06.2024;03:00;57
29.06.2024;02:00;52
29.06.2024;01:00;50
29.06.2024;00:00;69
28.06.2024;23:00;66
28.06.2024;22:00;79
28.06.2024;21:00;90
28.06.2024;20:00;96
28.06.2024;19:00;98
28.06.2024;18:00;94
28.06.2024;17:00;93
